Back to catalog

CZ-4 DEB

AliveSSO
NORAD 27762·DEBRIS·🇨🇳 China

Launched Oct 14, 1999 from Taiyuan Satellite Launch Center

Loading…

Next Passes (next 24 hours)

TLE

FreshSource: Space-Track

Epoch: Sep 14, 2026, 13:15 UTC

1 27762U 99057MV  26257.55276914  .00001064  00000-0  44672-3 0  9992
2 27762  98.6924  13.7819 0166308 188.0055 233.2405 14.20774822275802

Track CZ-4 DEB in real time with AllMySat

Download on the App Store